Stations météo

réclame
Mon MeteoGroup
Rodez, France (7552): Température de l'air & dewpoint: 16.10.2019 11:00:00 - 22.10.2019 11:00:00 (CEST)Rodez, France (7552): Température de l'air 5cm: 16.10.2019 11:00:00 - 22.10.2019 11:00:00 (CEST)Rodez, France (7552): Vitesse du vent & gusts: 16.10.2019 11:00:00 - 22.10.2019 11:00:00 (CEST)Rodez, France (7552): Direction du vent: 16.10.2019 11:00:00 - 22.10.2019 11:00:00 (CEST)Rodez, France (7552): reduced air pressure: 16.10.2019 11:00:00 - 22.10.2019 11:00:00 (CEST)Rodez, France (7552): visibility: 16.10.2019 11:00:00 - 22.10.2019 11:00:00 (CEST)Rodez, France (7552): Ensoleillement: 16.10.2019 11:00:00 - 22.10.2019 11:00:00 (CEST)Rodez, France (7552): Quantités de précipitations: 16.10.2019 11:00:00 - 22.10.2019 11:00:00 (CEST)
Date & Time tt [°C] td [°C] tt 5cm [°C] ff [km/h] ff [knt] fx [km/h] fx [knt] dd ppp [hPa] vv [km] sd [min] rr [mm]
22.10.2019 11:00:00 10,9 10,6 - 5 3 15 8 N 1019,8 10 0 -
22.10.2019 10:00:00 10,7 10,4 10,2 5 3 8 4 WNW 1019,9 6 0 0,0
22.10.2019 09:00:00 10,2 9,7 9,6 3 1 10 5 ESE 1020,2 13 0 0,0
22.10.2019 08:00:00 9,7 9,4 9,2 3 2 6 3 ENE 1020,1 17 0 0,0
22.10.2019 07:00:00 9,3 9,0 8,6 5 3 7 4 SE 1020,8 13 0 0,0
22.10.2019 06:00:00 9,1 8,6 8,6 0 0 5 3 N 1020,5 12 0 0,0
22.10.2019 05:00:00 8,9 8,6 6,0 3 2 10 5 ESE 1020,8 11 0 0,0
22.10.2019 04:00:00 7,9 7,5 5,7 2 1 9 5 S 1021,1 6 0 0,0
22.10.2019 03:00:00 8,6 8,3 6,0 3 2 6 4 E 1021,6 8 0 0,0
22.10.2019 02:00:00 8,7 8,2 7,0 0 0 5 3 N 1021,6 21 0 0,0
22.10.2019 01:00:00 8,1 7,5 5,4 2 1 4 2 SSE 1021,9 19 0 0,0
22.10.2019 00:00:00 8,4 7,6 5,4 2 1 9 5 SE 1021,7 13 0 0,0
21.10.2019 23:00:00 9,4 8,6 6,5 3 1 6 3 E 1021,2 32 0 0,0
21.10.2019 22:00:00 9,0 8,5 5,1 4 2 5 3 S 1021,4 27 0 0,0
21.10.2019 21:00:00 8,7 7,8 4,7 3 2 9 5 W 1021,0 44 0 0,0
21.10.2019 20:00:00 10,0 8,1 6,4 4 2 11 6 NW 1020,5 60 0 0,0
21.10.2019 19:00:00 11,4 8,8 9,6 8 4 12 6 NW 1019,5 60 31 0,0
21.10.2019 18:00:00 12,6 9,1 13,4 8 4 14 7 NW 1019,0 60 46 0,0
21.10.2019 17:00:00 13,2 8,9 16,4 5 3 13 7 NNW 1018,7 50 48 0,0
21.10.2019 16:00:00 13,0 8,7 15,3 7 4 13 7 N 1018,7 58 15 0,0
21.10.2019 15:00:00 12,7 8,6 13,9 5 3 10 5 N 1018,9 60 9 0,0
21.10.2019 14:00:00 11,9 7,8 14,1 5 3 15 8 E 1019,6 60 6 0,0
21.10.2019 13:00:00 11,8 8,5 14,0 8 5 15 8 E 1019,7 57 8 0,0
21.10.2019 12:00:00 10,7 8,1 12,3 4 2 10 6 NNE 1019,6 60 0 0,0
21.10.2019 11:00:00 9,7 8,3 10,4 6 3 10 5 NNW 1019,8 60 0 0,0
21.10.2019 10:00:00 9,0 8,2 9,3 7 4 11 6 NNW 1019,6 48 0 0,0
21.10.2019 09:00:00 9,0 8,5 7,6 6 3 8 4 N 1019,0 47 0 0,0
21.10.2019 08:00:00 8,8 8,5 7,6 0 0 8 4 N 1018,0 58 0 0,0
21.10.2019 07:00:00 9,2 8,4 8,3 3 1 8 5 NNW 1017,6 60 0 0,0
21.10.2019 06:00:00 9,4 8,6 8,4 6 3 12 6 WSW 1016,9 60 0 0,0
21.10.2019 05:00:00 9,5 8,6 8,5 3 2 11 6 S 1016,5 60 0 0,0
21.10.2019 04:00:00 9,9 8,8 9,4 7 4 11 6 S 1016,2 60 0 0,0
21.10.2019 03:00:00 10,0 8,9 8,9 6 3 10 5 SW 1015,8 60 0 0,0
21.10.2019 02:00:00 10,0 9,1 8,9 7 4 19 10 WSW 1015,0 60 0 0,0
21.10.2019 01:00:00 10,3 9,7 8,4 9 5 19 10 SSW 1014,0 60 0 0,0
21.10.2019 00:00:00 10,7 9,6 10,0 10 6 18 10 SW 1012,9 60 0 0,0
20.10.2019 23:00:00 11,4 10,0 10,8 9 5 16 9 SSW 1012,4 56 0 0,0
20.10.2019 22:00:00 11,7 9,8 10,6 11 6 17 9 W 1011,5 60 0 0,0
20.10.2019 21:00:00 12,2 9,6 11,7 11 6 22 12 SSW 1011,0 60 0 0,0
20.10.2019 20:00:00 12,7 10,1 11,8 7 4 14 8 S 1009,5 60 0 0,0
20.10.2019 19:00:00 12,9 9,0 12,1 9 5 21 11 SSW 1008,4 54 0 0,0
20.10.2019 18:00:00 13,7 10,5 13,0 12 7 27 15 WSW 1007,0 60 17 0,0
20.10.2019 17:00:00 13,6 10,9 12,2 12 7 37 20 WSW 1006,5 60 0 0,6
20.10.2019 16:00:00 14,4 10,4 14,1 19 10 45 25 WSW 1005,1 60 0 0,0
20.10.2019 15:00:00 14,8 13,3 15,1 27 15 44 24 W 1004,5 42 0 0,4
20.10.2019 14:00:00 18,4 14,5 17,5 28 15 55 30 S 1002,6 20 8 0,0
20.10.2019 13:00:00 18,9 13,7 19,5 34 18 61 33 SE 1002,0 60 5 0,0
20.10.2019 12:00:00 18,8 13,0 19,3 40 22 69 37 SE 1002,5 60 37 0,0
20.10.2019 11:00:00 18,5 13,4 17,3 41 22 67 36 SE 1002,3 44 21 0,0
20.10.2019 10:00:00 17,8 13,1 17,0 37 20 65 35 SE 1002,5 57 0 0,0
20.10.2019 09:00:00 17,5 13,2 16,5 36 19 71 39 SE 1001,8 60 0 0,0
20.10.2019 08:00:00 17,2 12,9 16,6 35 19 66 36 SE 1001,5 60 0 0,0
20.10.2019 07:00:00 17,5 12,6 16,7 34 18 63 34 SE 1001,4 60 0 0,0
20.10.2019 06:00:00 17,3 12,6 16,5 39 21 66 36 SE 1001,4 59 0 0,0
20.10.2019 05:00:00 17,2 12,7 16,3 33 18 59 32 SE 1001,7 59 0 0,0
20.10.2019 04:00:00 17,1 12,4 16,2 37 20 66 35 SE 1001,9 58 0 0,0
20.10.2019 03:00:00 16,8 12,9 16,2 37 20 61 33 SE 1002,9 59 0 0,0
20.10.2019 02:00:00 17,1 12,8 15,9 38 20 59 32 SE 1003,2 60 0 0,0
20.10.2019 01:00:00 16,8 12,9 15,9 35 19 61 33 SE 1003,4 54 0 0,0
20.10.2019 00:00:00 17,3 13,2 16,7 34 18 62 33 SE 1003,7 52 0 0,0
19.10.2019 23:00:00 17,5 13,8 16,8 35 19 55 30 SE 1003,7 47 0 0,0
19.10.2019 22:00:00 17,6 13,9 16,8 31 17 56 30 SSE 1003,4 46 0 0,0
19.10.2019 21:00:00 17,6 13,9 16,7 33 18 56 30 SE 1003,1 44 0 0,0
19.10.2019 20:00:00 17,4 13,7 16,3 22 12 44 24 SE 1003,8 39 0 0,0
19.10.2019 19:00:00 17,2 13,1 16,3 21 11 36 20 SSE 1004,1 49 0 0,0
19.10.2019 18:00:00 18,6 12,6 18,4 16 8 37 20 SE 1004,0 50 31 0,0
19.10.2019 17:00:00 17,2 13,5 19,1 5 3 11 6 NNE 1004,7 30 12 0,0
19.10.2019 16:00:00 16,8 13,1 18,1 8 4 14 8 NW 1005,3 10 7 0,0
19.10.2019 15:00:00 17,1 12,8 19,3 6 3 11 6 WNW 1005,4 15 16 0,0
19.10.2019 14:00:00 16,4 13,5 17,8 5 3 10 6 NW 1006,4 6 1 0,0
19.10.2019 13:00:00 15,7 12,8 17,5 3 1 9 5 NNE 1007,2 20 0 0,0
19.10.2019 12:00:00 15,0 12,7 16,8 6 3 10 5 N 1008,0 23 6 0,0
19.10.2019 11:00:00 13,9 12,1 13,7 2 1 6 3 NW 1008,7 20 0 0,0
19.10.2019 10:00:00 13,1 11,7 11,1 4 2 11 6 NNE 1009,1 15 13 0,0
19.10.2019 09:00:00 11,2 10,6 8,6 2 1 9 5 ENE 1009,2 10 0 0,0
19.10.2019 08:00:00 10,7 9,6 8,8 7 4 8 5 ESE 1009,2 11 0 0,0
19.10.2019 07:00:00 11,6 10,5 9,3 2 1 10 5 ENE 1009,7 15 0 0,0
19.10.2019 06:00:00 12,3 10,4 10,6 3 1 14 7 NE 1009,5 14 0 0,0
19.10.2019 05:00:00 13,3 11,0 11,8 9 5 19 10 E 1009,2 18 0 0,0
19.10.2019 04:00:00 13,1 11,0 11,3 10 5 23 12 SE 1009,9 16 0 0,0
19.10.2019 03:00:00 12,8 11,5 12,0 11 6 18 10 E 1010,4 12 0 0,0
19.10.2019 02:00:00 12,4 11,8 10,9 11 6 18 10 ESE 1011,1 9 0 0,0
19.10.2019 01:00:00 12,5 11,6 11,8 14 8 20 11 SE 1011,4 10 0 0,0
19.10.2019 00:00:00 12,3 11,5 11,8 5 3 9 5 SE 1012,2 9 0 0,0
18.10.2019 23:00:00 12,1 11,3 10,2 5 3 11 6 E 1012,6 12 0 0,0
18.10.2019 22:00:00 12,0 11,1 11,2 9 5 18 10 ESE 1013,0 16 0 0,0
18.10.2019 21:00:00 12,4 10,8 11,8 7 4 11 6 ESE 1013,6 43 0 0,0
18.10.2019 20:00:00 12,3 10,7 11,7 4 2 10 5 SE 1014,7 59 0 0,0
18.10.2019 19:00:00 12,5 10,7 12,5 6 4 9 5 NW 1014,5 60 0 0,0
18.10.2019 18:00:00 12,6 11,0 13,5 6 3 21 11 N 1014,8 54 3 0,0
18.10.2019 17:00:00 12,6 11,5 13,8 11 6 19 11 NNW 1015,0 29 0 0,0
18.10.2019 16:00:00 13,4 12,1 14,5 11 6 22 12 NNW 1015,0 35 0 0,0
18.10.2019 15:00:00 14,0 12,6 15,5 15 8 24 13 NW 1014,8 23 3 0,0
18.10.2019 14:00:00 15,7 12,8 17,3 2 1 10 6 NNE 1014,8 20 0 0,0
18.10.2019 13:00:00 14,8 12,1 16,1 4 2 13 7 WNW 1015,8 41 20 0,0
18.10.2019 12:00:00 13,6 12,2 13,3 2 1 8 5 E 1016,3 20 0 0,2
18.10.2019 11:00:00 12,5 11,7 11,7 4 2 26 14 WNW 1016,7 19 0 0,0
18.10.2019 10:00:00 12,3 11,2 11,8 21 11 34 19 WNW 1016,1 13 0 0,2
18.10.2019 09:00:00 12,1 10,8 11,5 13 7 34 18 WNW 1014,9 33 0 0,0
18.10.2019 08:00:00 13,0 11,2 11,5 14 7 22 12 SE 1013,8 30 0 0,0
18.10.2019 07:00:00 12,7 10,9 11,5 15 8 22 12 SE 1013,9 36 0 0,0
18.10.2019 06:00:00 12,9 11,3 10,6 16 9 21 11 SSE 1013,7 47 0 0,0
18.10.2019 05:00:00 12,5 11,1 10,9 10 5 26 14 SSE 1014,1 39 0 0,0
18.10.2019 04:00:00 12,4 11,3 10,0 14 7 21 12 SE 1014,8 27 0 0,0
18.10.2019 03:00:00 11,3 10,8 7,2 10 5 15 8 SSE 1015,7 23 0 0,0
18.10.2019 02:00:00 10,8 10,3 7,8 10 5 16 9 SE 1016,0 16 0 0,0
18.10.2019 01:00:00 11,2 10,7 7,6 12 6 19 10 SE 1016,1 17 0 0,0
18.10.2019 00:00:00 10,5 10,0 6,4 10 5 17 9 SSE 1016,8 20 0 0,0
17.10.2019 23:00:00 11,3 10,5 8,1 6 3 14 8 SE 1017,1 17 0 0,0
17.10.2019 22:00:00 12,1 10,2 9,6 12 6 18 10 SE 1016,6 20 0 0,0
17.10.2019 21:00:00 11,6 10,2 7,1 3 2 5 3 SSW 1016,8 26 0 0,0
17.10.2019 20:00:00 12,0 9,7 7,5 6 3 9 5 SSE 1016,1 45 0 0,0
17.10.2019 19:00:00 15,1 10,5 13,1 6 3 15 8 SE 1015,0 16 41 0,0
17.10.2019 18:00:00 16,9 10,5 17,8 10 5 21 12 SSE 1014,5 49 51 0,0
17.10.2019 17:00:00 17,2 11,2 17,6 14 8 26 14 SE 1014,4 56 24 0,0
17.10.2019 16:00:00 16,3 11,0 16,6 8 5 14 8 ESE 1014,8 46 0 0,0
17.10.2019 15:00:00 15,9 11,7 16,0 6 3 11 6 E 1015,0 45 0 0,0
17.10.2019 14:00:00 14,7 11,8 15,6 4 2 18 10 W 1015,8 40 0 0,0
17.10.2019 13:00:00 15,9 10,6 15,1 12 6 19 11 SSE 1015,7 50 0 0,0
17.10.2019 12:00:00 15,7 11,3 15,5 6 3 25 13 S 1015,5 58 0 0,0
17.10.2019 11:00:00 15,6 10,1 15,3 16 9 32 17 SE 1015,0 20 17 0,0
17.10.2019 10:00:00 14,2 9,8 12,7 16 9 25 14 ESE 1015,1 50 15 0,0
17.10.2019 09:00:00 12,9 7,8 10,4 18 10 26 14 ESE 1015,5 58 25 0,0
17.10.2019 08:00:00 10,7 7,6 8,5 12 7 16 9 E 1015,5 58 0 0,0
17.10.2019 07:00:00 9,4 7,5 7,2 7 4 13 7 E 1016,2 60 0 0,0
17.10.2019 06:00:00 10,2 7,4 9,1 11 6 16 9 E 1015,5 60 0 0,0
17.10.2019 05:00:00 10,8 7,3 9,4 11 6 15 8 ESE 1015,6 60 0 0,0
17.10.2019 04:00:00 11,2 7,1 9,1 11 6 23 13 E 1016,1 60 0 0,0
17.10.2019 03:00:00 11,3 7,2 8,2 16 9 22 12 ESE 1016,2 60 0 0,0
17.10.2019 02:00:00 11,0 8,0 8,8 10 5 19 10 E 1016,5 60 0 0,0
17.10.2019 01:00:00 10,6 8,4 7,9 8 5 14 8 ESE 1017,0 51 0 0,0
17.10.2019 00:00:00 10,9 8,8 9,0 9 5 18 10 SE 1017,0 56 0 0,0
16.10.2019 23:00:00 11,4 9,1 9,2 13 7 21 11 SSE 1016,5 60 0 0,0
16.10.2019 22:00:00 11,2 8,6 9,3 12 6 18 10 SE 1016,4 60 0 0,0
16.10.2019 21:00:00 12,3 9,3 10,0 8 5 14 7 SSE 1016,0 60 0 0,0
16.10.2019 20:00:00 13,5 9,9 12,1 9 5 16 8 SE 1015,2 60 0 0,0
16.10.2019 19:00:00 15,0 10,0 13,5 8 4 12 6 SE 1014,8 19 7 0,0
16.10.2019 18:00:00 15,4 9,1 15,0 8 4 19 11 S 1014,8 60 10 0,0
16.10.2019 17:00:00 17,0 8,9 19,0 12 6 21 12 S 1014,4 43 48 0,0
16.10.2019 16:00:00 17,7 8,3 22,3 11 6 23 13 SSE 1014,5 50 60 0,0
16.10.2019 15:00:00 17,8 7,2 21,0 16 8 28 15 S 1014,8 48 60 0,0
16.10.2019 14:00:00 17,5 7,0 21,1 16 9 29 16 SSE 1015,2 18 60 0,0
16.10.2019 13:00:00 17,0 8,4 20,3 18 10 28 15 S 1016,0 37 60 0,0
16.10.2019 12:00:00 15,1 9,2 15,2 10 5 25 13 ESE 1016,8 51 56 0,0
16.10.2019 11:00:00 12,4 8,3 11,3 16 8 23 12 SE 1017,9 53 60 0,0

tt = Température de l'air
td = dewpoint
tt 5cm = Température de l'air 5cm
ff = Vitesse du vent
fx = gusts
dd = Direction du vent
ppp = reduced air pressure
vv = visibility
sd = Ensoleillement
rr = Quantités de précipitations

stations d'obs. à proximité